�N����,����,�g�[���i�L�b�`���j���x,�g�[�����x,��g�[���i���ʏ��j���x,����
 2002/12/01, 0:00,16.2,54,14.5,13.1
 2002/12/01, 0:15,16,54,14.3,13.1
 2002/12/01, 0:30,15.9,55,14.2,13.2
 2002/12/01, 0:45,15.7,55,14.1,13.3
 2002/12/01, 1:00,15.5,55,14,13.3
 2002/12/01, 1:15,15.5,55,13.8,13.4
 2002/12/01, 1:30,15.4,55,13.8,13.5
 2002/12/01, 1:45,15.3,55,13.8,13.5
 2002/12/01, 2:00,15.2,55,13.7,13.6
 2002/12/01, 2:15,15.1,56,13.6,13.6
 2002/12/01, 2:30,15.1,55,13.5,12.6
 2002/12/01, 2:45,15,56,13.5,12.7
 2002/12/01, 3:00,14.9,56,13.5,12.7
 2002/12/01, 3:15,14.8,56,13.5,12.7
 2002/12/01, 3:30,14.7,56,13.4,12.8
 2002/12/01, 3:45,14.7,56,13.4,12.9
 2002/12/01, 4:00,14.6,56,13.4,12.9
 2002/12/01, 4:15,14.6,56,13.4,13
 2002/12/01, 4:30,14.5,57,13.4,13
 2002/12/01, 4:45,14.5,57,13.2,13.1
 2002/12/01, 5:00,14.4,57,13.2,13.1
 2002/12/01, 5:15,14.3,57,13.2,13.2
 2002/12/01, 5:30,14.4,58,13.2,13.2
 2002/12/01, 5:45,14.2,58,13.2,13.3
 2002/12/01, 6:00,14.3,58,13.1,13.3
 2002/12/01, 6:15,14.2,58,13,13.4
 2002/12/01, 6:30,14.2,58,13,13.4
 2002/12/01, 6:45,14.1,58,13,13.4
 2002/12/01, 7:00,14.1,59,13,12.4
 2002/12/01, 7:15,16.1,58,13.7,12.5
 2002/12/01, 7:30,17.8,55,13.6,12.5
 2002/12/01, 7:45,18.6,53,13.6,12.6
 2002/12/01, 8:00,19.2,52,13.8,12.6
 2002/12/01, 8:15,19.2,52,13.8,12.7
 2002/12/01, 8:30,19.2,51,14.1,12.7
 2002/12/01, 8:45,18.8,50,14.8,12.8
 2002/12/01, 9:00,17.1,55,14.4,12.8
 2002/12/01, 9:15,16.5,54,14.2,12.9
 2002/12/01, 9:30,16,56,14.2,13
 2002/12/01, 9:45,15.8,56,14.1,13
 2002/12/01,10:00,15.7,56,14.2,13.1
 2002/12/01,10:15,15.7,57,14.4,13.1
 2002/12/01,10:30,16,55,14.5,11.7
 2002/12/01,10:45,15.9,54,14.6,11.4
 2002/12/01,11:00,15.9,54,14.8,11.5
 2002/12/01,11:15,15.8,55,15.1,11.6
 2002/12/01,11:30,15.7,56,15.1,11.7
 2002/12/01,11:45,16.1,58,15.2,11.8
 2002/12/01,12:00,16.7,60,15.1,11.9
 2002/12/01,12:15,16.9,59,15.2,12
 2002/12/01,12:30,16.8,58,15.2,12.3
 2002/12/01,12:45,16.6,58,15.2,12.1
 2002/12/01,13:00,16.4,57,15.4,12.1
 2002/12/01,13:15,16.4,56,15.2,12.1
 2002/12/01,13:30,16.4,56,15.4,12.2
 2002/12/01,13:45,16.4,56,15.5,12.3
 2002/12/01,14:00,16.3,56,15.5,12.3
 2002/12/01,14:15,16.4,57,15.5,12.4
 2002/12/01,14:30,16.3,56,15.5,12.5
 2002/12/01,14:45,16.3,56,15.5,12.6
 2002/12/01,15:00,16.8,58,15.4,12.6
 2002/12/01,15:15,16.9,57,15.6,12.6
 2002/12/01,15:30,17,56,15.7,12.7
 2002/12/01,15:45,17,56,15.8,12.8
 2002/12/01,16:00,17.1,56,15.8,12.9
 2002/12/01,16:15,17.1,56,15.8,13
 2002/12/01,16:30,17.1,56,15.7,12.9
 2002/12/01,16:45,17,56,15.5,13
 2002/12/01,17:00,16.9,56,15.3,13.1
 2002/12/01,17:15,16.7,55,15.1,13.2
 2002/12/01,17:30,16.6,55,15.6,13.3
 2002/12/01,17:45,16.4,55,16.6,13.4
 2002/12/01,18:00,16.7,58,17.5,13.6
 2002/12/01,18:15,16.6,57,17.5,13.8
 2002/12/01,18:30,16.7,57,17.2,13.9
 2002/12/01,18:45,16.9,56,17.1,14.1
 2002/12/01,19:00,17,57,17.1,14.2
 2002/12/01,19:15,17.1,60,16.6,14.4
 2002/12/01,19:30,17.1,58,16.2,14.5
 2002/12/01,19:45,17,58,15.9,14.6
 2002/12/01,20:00,17,57,15.6,14.8
 2002/12/01,20:15,16.9,58,15.5,14.9
 2002/12/01,20:30,16.9,56,15.4,15
 2002/12/01,20:45,16.8,56,15.3,15.1
 2002/12/01,21:00,16.5,56,15.2,15.2
 2002/12/01,21:15,16.4,55,15.2,15.3
 2002/12/01,21:30,16.3,55,15.1,13.9
 2002/12/01,21:45,16.2,55,15.1,14
 2002/12/01,22:00,16.1,55,15.3,14
 2002/12/01,22:15,16.1,56,15.7,14.1
 2002/12/01,22:30,16.1,59,15.1,14.1
 2002/12/01,22:45,16,58,14.8,14.2
 2002/12/01,23:00,16.1,58,14.8,14.3
 2002/12/01,23:15,15.9,57,14.4,13.4
 2002/12/01,23:30,15.7,58,14.2,13.4
 2002/12/01,23:45,15.6,58,14.4,13.4
 2002/12/02, 0:00,15.4,59,14.2,13.5
 2002/12/02, 0:15,15.3,58,13.8,13
 2002/12/02, 0:30,15.1,58,13.6,13
 2002/12/02, 0:45,15,58,13.4,13.1
 2002/12/02, 1:00,14.9,59,13.3,13.1
 2002/12/02, 1:15,14.8,59,13.1,13.2
 2002/12/02, 1:30,14.7,59,13.1,13.3
 2002/12/02, 1:45,14.6,59,13,13.3
 2002/12/02, 2:00,14.5,59,13,13.4
 2002/12/02, 2:15,14.3,59,13,13.4
 2002/12/02, 2:30,14.4,60,13,13.5
 2002/12/02, 2:45,14.3,60,13,13.5
 2002/12/02, 3:00,14.3,60,13,13.6
 2002/12/02, 3:15,14.2,60,12.9,13.6
 2002/12/02, 3:30,14.1,61,12.9,13.7
 2002/12/02, 3:45,14.1,61,12.9,13.7
 2002/12/02, 4:00,14,61,12.8,13.8
 2002/12/02, 4:15,14,61,12.7,13.8
 2002/12/02, 4:30,13.9,61,12.5,13.8
 2002/12/02, 4:45,13.9,61,12.5,13.9
 2002/12/02, 5:00,13.8,61,12.5,13.9
 2002/12/02, 5:15,13.8,61,12.5,13.9
 2002/12/02, 5:30,13.8,61,12.4,14
 2002/12/02, 5:45,13.8,61,12.4,14
 2002/12/02, 6:00,13.7,61,12.4,14
 2002/12/02, 6:15,14.3,62,12.4,12.6
 2002/12/02, 6:30,16.1,58,12.6,12.6
 2002/12/02, 6:45,19,51,12.8,12.6
 2002/12/02, 7:00,17.5,54,13,12.7
 2002/12/02, 7:15,17.9,54,13,12.7
 2002/12/02, 7:30,17.8,53,13.6,12.8
 2002/12/02, 7:45,17.8,53,13.5,12.8
 2002/12/02, 8:00,18.1,53,13.5,12.9
 2002/12/02, 8:15,18.8,52,14.5,13
 2002/12/02, 8:30,19.7,51,14,13.1
 2002/12/02, 8:45,19,50,14.3,13.1
 2002/12/02, 9:00,19.2,50,14.5,13.2
 2002/12/02, 9:15,19.2,48,14.3,13.3
 2002/12/02, 9:30,19.5,47,14.4,13.4
 2002/12/02, 9:45,19.9,48,14.6,13.4
 2002/12/02,10:00,20.2,48,14.9,13.5
 2002/12/02,10:15,19.2,49,16.5,13.6
 2002/12/02,10:30,18.4,46,15.4,12.8
 2002/12/02,10:45,17.8,43,15.4,12.8
 2002/12/02,11:00,17.1,42,15.3,12.8
 2002/12/02,11:15,16.6,42,15.2,12.4
 2002/12/02,11:30,16.3,43,15.1,12.4
 2002/12/02,11:45,16.6,43,15.3,12.5
 2002/12/02,12:00,16.3,44,15.3,12.5
 2002/12/02,12:15,16.1,43,15.3,12.6
 2002/12/02,12:30,16.2,44,15.7,12.7
 2002/12/02,12:45,16.2,42,16,12.8
 2002/12/02,13:00,16.2,41,16.1,12.8
 2002/12/02,13:15,16.2,42,16.1,12.9
 2002/12/02,13:30,16.2,43,16.3,13
 2002/12/02,13:45,16.3,43,16.5,13
 2002/12/02,14:00,16.4,43,16.9,13.1
 2002/12/02,14:15,16.5,45,16.9,12.7
 2002/12/02,14:30,16.5,45,17,12.7
 2002/12/02,14:45,16.4,44,16.9,12.8
 2002/12/02,15:00,16.4,46,16.5,12.9
 2002/12/02,15:15,16.3,47,16.5,13
 2002/12/02,15:30,16.3,47,16.5,13.1
 2002/12/02,15:45,16.2,48,16.3,13.2
 2002/12/02,16:00,16.3,49,16.2,13.3
 2002/12/02,16:15,16.3,48,16,13.4
 2002/12/02,16:30,16.2,49,15.7,12.9
 2002/12/02,16:45,16.2,48,15.7,12.9
 2002/12/02,17:00,18.1,49,15.4,13
 2002/12/02,17:15,19,49,15.3,13.1
 2002/12/02,17:30,19.1,48,15.8,12.9
 2002/12/02,17:45,19.4,48,16.5,12.9
 2002/12/02,18:00,19.6,48,17.1,13
 2002/12/02,18:15,19.7,47,16.8,13.1
 2002/12/02,18:30,20.3,46,17,13.2
 2002/12/02,18:45,20.7,46,17.6,13.3
 2002/12/02,19:00,21,45,17.3,13.3
 2002/12/02,19:15,21.6,44,17.3,13.4
 2002/12/02,19:30,22,42,16.8,13.5
 2002/12/02,19:45,21.7,42,16.4,13.6
 2002/12/02,20:00,21,43,16.1,13.7
 2002/12/02,20:15,20.9,43,16,13.8
 2002/12/02,20:30,21,44,16.9,13.9
 2002/12/02,20:45,21.1,44,16.4,14
 2002/12/02,21:00,21.6,42,16.2,14
 2002/12/02,21:15,21.1,44,16,13.7
 2002/12/02,21:30,22.4,40,16.2,13.7
 2002/12/02,21:45,21.5,44,16.2,13.8
 2002/12/02,22:00,21.5,45,15.8,13.9
 2002/12/02,22:15,21.4,45,15.6,14
 2002/12/02,22:30,21.3,45,15.4,14.1
 2002/12/02,22:45,22.4,43,15.3,14.2
 2002/12/02,23:00,20,45,15.4,14.4
 2002/12/02,23:15,19.3,46,15.1,14.5
 2002/12/02,23:30,18.8,46,14.8,13.6
 2002/12/02,23:45,18.2,46,14.6,13.5
 2002/12/03, 0:00,17.9,47,14.3,13.6
 2002/12/03, 0:15,17.6,47,14.2,13.7
 2002/12/03, 0:30,17.2,47,14.1,13.8
 2002/12/03, 0:45,17,47,14,13.8
 2002/12/03, 1:00,16.8,47,14,13.9
 2002/12/03, 1:15,16.6,47,13.9,14
 2002/12/03, 1:30,16.4,48,13.8,14.1
 2002/12/03, 1:45,16.2,48,13.6,14.2
 2002/12/03, 2:00,16,48,13.3,14.3
 2002/12/03, 2:15,15.8,48,13.3,14.4
 2002/12/03, 2:30,15.6,48,13.2,14.4
 2002/12/03, 2:45,15.4,48,13,14.5
 2002/12/03, 3:00,15.3,49,13,14.6
 2002/12/03, 3:15,15.2,49,12.8,14.6
 2002/12/03, 3:30,15,49,12.8,14.7
 2002/12/03, 3:45,14.8,49,12.6,14.7
 2002/12/03, 4:00,14.7,49,12.5,14.7
 2002/12/03, 4:15,14.6,50,12.4,14.8
 2002/12/03, 4:30,14.5,50,12.4,14.8
 2002/12/03, 4:45,14.4,50,12.2,14.8
 2002/12/03, 5:00,14.3,50,12.2,14.8
 2002/12/03, 5:15,14.2,50,12.1,14.8
 2002/12/03, 5:30,14.2,51,12,14.8
 2002/12/03, 5:45,14.1,51,11.9,14.8
 2002/12/03, 6:00,14,51,11.8,14.8
 2002/12/03, 6:15,14,51,11.7,14.8
 2002/12/03, 6:30,14,52,11.7,12.5
 2002/12/03, 6:45,18.9,44,11.9,12.5
 2002/12/03, 7:00,17.6,46,11.9,12.5
 2002/12/03, 7:15,17.8,47,11.9,12.6
 2002/12/03, 7:30,19.1,43,12.1,12.6
 2002/12/03, 7:45,18.1,47,12.5,12.7
 2002/12/03, 8:00,18.5,47,12.6,11.9
 2002/12/03, 8:15,18.6,46,13.5,11.9
 2002/12/03, 8:30,18.9,46,13.2,12
 2002/12/03, 8:45,19.6,45,13.5,12.1
 2002/12/03, 9:00,20,44,13.7,12.2
 2002/12/03, 9:15,19.4,39,13.8,12.4
 2002/12/03, 9:30,18.6,39,13.9,12.5
 2002/12/03, 9:45,18,41,14,12.1
 2002/12/03,10:00,17.7,41,14.1,11.9
 2002/12/03,10:15,17.4,41,13.7,12
 2002/12/03,10:30,16.8,42,13.8,12.1
 2002/12/03,10:45,16.2,43,13.8,12.2
 2002/12/03,11:00,16.1,44,14.2,12.3
 2002/12/03,11:15,16.1,44,14.4,12.4
 2002/12/03,11:30,16.2,45,15.1,12.5
 2002/12/03,11:45,16,45,15.3,12.6
 2002/12/03,12:00,15.9,46,15.7,12.7
 2002/12/03,12:15,16,47,16.1,12.8
 2002/12/03,12:30,16.4,48,16.3,12.9
 2002/12/03,12:45,16.5,46,16.5,13.1
 2002/12/03,13:00,16.4,46,16.8,13.1
 2002/12/03,13:15,16.5,47,16.7,13.2
 2002/12/03,13:30,16.4,46,16.7,13.3
 2002/12/03,13:45,16.6,46,16.8,13.4
 2002/12/03,14:00,16.6,46,17,12.7
 2002/12/03,14:15,16.6,45,17.2,12.8
 2002/12/03,14:30,16.8,45,17.2,12.9
 2002/12/03,14:45,16.8,46,17.2,13
 2002/12/03,15:00,16.5,48,17.1,13.1
 2002/12/03,15:15,16.5,47,17,13.2
 2002/12/03,15:30,16.4,47,16.8,13.3
 2002/12/03,15:45,16.4,47,16.6,13.5
 2002/12/03,16:00,16.4,48,16.6,13.6
 2002/12/03,16:15,16.4,47,16.3,13.7
 2002/12/03,16:30,16.3,47,16.2,13.8
 2002/12/03,16:45,16.2,48,16.1,12.9
 2002/12/03,17:00,16.3,49,15.9,13
 2002/12/03,17:15,16.2,50,15.7,13.1
 2002/12/03,17:30,16.3,50,15.5,13.2
 2002/12/03,17:45,16.4,50,16.2,13.3
 2002/12/03,18:00,16.2,50,16.6,13.4
 2002/12/03,18:15,16.2,50,17,13.6
 2002/12/03,18:30,16.6,52,16.8,13.7
 2002/12/03,18:45,19.2,49,17.3,13.8
 2002/12/03,19:00,19.3,46,16.9,13.9
 2002/12/03,19:15,18.9,48,16.6,14
 2002/12/03,19:30,20.1,48,16.4,14.1
 2002/12/03,19:45,20.1,47,16.4,14.2
 2002/12/03,20:00,20.1,47,16.3,14.3
 2002/12/03,20:15,20.7,47,16.2,14.4
 2002/12/03,20:30,20.8,46,16.4,14.5
 2002/12/03,20:45,20.4,46,16.6,14.6
 2002/12/03,21:00,20.9,47,17.8,14.7
 2002/12/03,21:15,20.7,48,17,14.8
 2002/12/03,21:30,20.9,47,16.8,14.9
 2002/12/03,21:45,20.9,46,16.5,13.9
 2002/12/03,22:00,20.9,46,17,14
 2002/12/03,22:15,21,47,17.2,14
 2002/12/03,22:30,21.3,47,16.7,14.1
 2002/12/03,22:45,21.8,45,16.5,14.2
 2002/12/03,23:00,21.3,45,16.8,14.3
 2002/12/03,23:15,19.9,49,16.8,14.4
 2002/12/03,23:30,19.2,49,16.3,13.8
 2002/12/03,23:45,18.8,50,16.1,13.8
 2002/12/04, 0:00,18.6,50,15.9,13.9
 2002/12/04, 0:15,18.2,50,15.8,13.9
 2002/12/04, 0:30,18,50,15.7,14
 2002/12/04, 0:45,17.7,51,15.5,14.1
 2002/12/04, 1:00,17.6,50,15.4,14.2
 2002/12/04, 1:15,17.5,51,15.4,14.3
 2002/12/04, 1:30,17.3,51,15.2,14.3
 2002/12/04, 1:45,17.1,51,15.1,14.4
 2002/12/04, 2:00,17,52,14.9,14.5
 2002/12/04, 2:15,16.8,52,14.8,14.6
 2002/12/04, 2:30,16.7,52,14.7,14.6
 2002/12/04, 2:45,16.6,53,14.5,14.7
 2002/12/04, 3:00,16.4,53,14.5,14.7
 2002/12/04, 3:15,16.4,53,14.5,14.8
 2002/12/04, 3:30,16.2,53,14.4,14.8
 2002/12/04, 3:45,16.1,53,14.4,14.9
 2002/12/04, 4:00,16.1,54,14.3,14.9
 2002/12/04, 4:15,16,54,14.3,14.9
 2002/12/04, 4:30,16,54,14.2,15
 2002/12/04, 4:45,15.9,54,14.2,15
 2002/12/04, 5:00,15.7,54,14.1,15
 2002/12/04, 5:15,15.7,54,14,15.1
 2002/12/04, 5:30,15.7,54,14,15.1
 2002/12/04, 5:45,15.6,55,13.9,13.4
 2002/12/04, 6:00,15.4,55,13.8,13.4
 2002/12/04, 6:15,15.6,54,13.8,13.5
 2002/12/04, 6:30,15.8,55,14.2,13.5
 2002/12/04, 6:45,20,48,14.5,13.6
 2002/12/04, 7:00,18.7,51,14.6,13.6
 2002/12/04, 7:15,18.9,52,14.4,13.7
 2002/12/04, 7:30,21.2,47,14.5,13.8
 2002/12/04, 7:45,19.7,50,14.9,13.8
 2002/12/04, 8:00,19.6,51,15,13.9
 2002/12/04, 8:15,19.5,51,14.9,14
 2002/12/04, 8:30,19.6,51,14.9,14
 2002/12/04, 8:45,19.9,51,15.1,14.1
 2002/12/04, 9:00,18.4,54,15,14.2
 2002/12/04, 9:15,17.9,54,15.1,13.3
 2002/12/04, 9:30,17.6,55,15.1,13.3
 2002/12/04, 9:45,17.2,57,15.1,13.4
 2002/12/04,10:00,17.2,58,15.1,13.5
 2002/12/04,10:15,17,60,15.3,13.6
 2002/12/04,10:30,17.1,59,15.4,13.7
 2002/12/04,10:45,17.1,59,15.5,13.8
 2002/12/04,11:00,17.1,59,15.7,14
 2002/12/04,11:15,17.1,60,15.8,14.1
 2002/12/04,11:30,17.1,58,16,14.2
 2002/12/04,11:45,17.2,58,16.1,14.3
 2002/12/04,12:00,17.5,61,16.2,13.3
 2002/12/04,12:15,18.8,61,16.7,13.4
 2002/12/04,12:30,19.5,58,17,13.5
 2002/12/04,12:45,20.1,56,17.2,13.6
 2002/12/04,13:00,20,55,17.4,13.7
 2002/12/04,13:15,19,56,17.3,13.8
 2002/12/04,13:30,18.8,56,17.3,14
 2002/12/04,13:45,18.6,56,17.2,14.1
 2002/12/04,14:00,18.5,56,17.3,14.2
 2002/12/04,14:15,18.5,57,17.4,14.4
 2002/12/04,14:30,18.4,56,17.4,14.5
 2002/12/04,14:45,18.2,56,17.2,14.7
 2002/12/04,15:00,18.1,57,17.2,14.8
 2002/12/04,15:15,18,57,17.1,14.9
 2002/12/04,15:30,18,57,17.1,15
 2002/12/04,15:45,18,57,17.1,15.1
 2002/12/04,16:00,17.9,57,17.1,15.2
 2002/12/04,16:15,17.9,58,17,15.4
 2002/12/04,16:30,18,58,17.1,15.5
 2002/12/04,16:45,18,59,16.8,14.3
 2002/12/04,17:00,18,57,16.7,14.3
 2002/12/04,17:15,17.9,56,16.7,14.4
 2002/12/04,17:30,18.1,60,16.8,14.5
 2002/12/04,17:45,18.2,60,17.3,14.6
 2002/12/04,18:00,18.1,60,17.9,14.7
 2002/12/04,18:15,18,59,18.1,14.9
 2002/12/04,18:30,18,59,18.2,15
 2002/12/04,18:45,18.3,61,20.2,15.2
 2002/12/04,19:00,18.8,63,19.4,15.3
 2002/12/04,19:15,19.6,62,19.3,15.5
 2002/12/04,19:30,20.5,58,19,15.6
 2002/12/04,19:45,21.1,55,18.8,15.8
 2002/12/04,20:00,21.3,55,18.6,15.9
 2002/12/04,20:15,21.4,54,18.6,16
 2002/12/04,20:30,21.7,54,18.4,16.2
 2002/12/04,20:45,21.7,53,18.3,16.3
 2002/12/04,21:00,21.8,52,18.3,16.4
 2002/12/04,21:15,21.9,52,18.5,16.5
 2002/12/04,21:30,22,51,18.3,16.6
 2002/12/04,21:45,22.1,51,18.3,15
 2002/12/04,22:00,22.3,51,18.3,15
 2002/12/04,22:15,22.2,51,18.5,15.1
 2002/12/04,22:30,23.2,51,19.3,15.2
 2002/12/04,22:45,23.2,50,19.1,15.4
 2002/12/04,23:00,23.3,49,19,15.6
 2002/12/04,23:15,23,50,18.5,15.7
 2002/12/04,23:30,22.6,50,18.5,15.9
 2002/12/04,23:45,21.4,53,18.7,16.1
 2002/12/05, 0:00,20.8,54,18,16.3
 2002/12/05, 0:15,20.4,55,17.6,16.4
 2002/12/05, 0:30,20,55,17.4,16.6
 2002/12/05, 0:45,19.7,55,17.4,16.8
 2002/12/05, 1:00,19.4,55,17,15.1
 2002/12/05, 1:15,19.2,56,16.8,15.1
 2002/12/05, 1:30,18.9,56,16.7,15.2
 2002/12/05, 1:45,18.7,56,16.5,15.3
 2002/12/05, 2:00,18.5,56,16.4,15.5
 2002/12/05, 2:15,18.4,57,16.4,15.6
 2002/12/05, 2:30,18.2,57,16.2,15.7
 2002/12/05, 2:45,18,57,16.1,15.9
 2002/12/05, 3:00,17.8,57,16,16
 2002/12/05, 3:15,17.8,58,15.8,16.1
 2002/12/05, 3:30,17.6,58,15.8,16.2
 2002/12/05, 3:45,17.4,58,15.7,16.3
 2002/12/05, 4:00,17.4,58,15.6,16.4
 2002/12/05, 4:15,17.3,58,15.5,16.4
 2002/12/05, 4:30,17.2,58,15.4,16.5
 2002/12/05, 4:45,17.1,59,15.3,16.5
 2002/12/05, 5:00,17,59,15.2,16.6
 2002/12/05, 5:15,16.9,59,15.1,16.6
 2002/12/05, 5:30,16.8,59,15.1,16.6
 2002/12/05, 5:45,16.6,59,14.9,16.7
 2002/12/05, 6:00,16.6,59,14.9,16.7
 2002/12/05, 6:15,16.5,59,14.8,16.7
 2002/12/05, 6:30,17.8,59,14.8,14.3
 2002/12/05, 6:45,20.3,52,15.6,14.4
 2002/12/05, 7:00,19.7,54,15.2,14.4
 2002/12/05, 7:15,19.8,55,15.2,14.5
 2002/12/05, 7:30,21,53,15.3,14.5
 2002/12/05, 7:45,20.1,54,15.3,14.6
 2002/12/05, 8:00,21.8,52,16,14.7
 2002/12/05, 8:15,20.9,52,15.6,14.8
 2002/12/05, 8:30,21.1,53,15.8,13.8
 2002/12/05, 8:45,20.6,53,16.4,13.9
 2002/12/05, 9:00,19.4,56,16.1,13.9
 2002/12/05, 9:15,19.2,57,16.2,13.4
 2002/12/05, 9:30,18.6,59,16,13.5
 2002/12/05, 9:45,18.1,60,15.8,12.7
 2002/12/05,10:00,18,60,15.6,12.9
 2002/12/05,10:15,17.4,62,15.5,12.9
 2002/12/05,10:30,17.6,62,15.7,13.1
 2002/12/05,10:45,17.6,62,16.1,13.1
 2002/12/05,11:00,18,60,16.4,13.2
 2002/12/05,11:15,18.1,64,16.8,13.2
 2002/12/05,11:30,18.5,63,16.9,13.3
 2002/12/05,11:45,18.6,61,16.8,13.4
 2002/12/05,12:00,18.5,59,17,13.4
 2002/12/05,12:15,18.6,59,17.3,13.5
 2002/12/05,12:30,18.7,59,18.2,13.6
 2002/12/05,12:45,18.8,58,18.5,13.6
 2002/12/05,13:00,18.8,58,19.2,13.7
 2002/12/05,13:15,18.9,57,19.7,13.7
 2002/12/05,13:30,19.1,57,19.9,13.8
 2002/12/05,13:45,19.2,55,20.3,13.9
 2002/12/05,14:00,19.3,53,20.3,13.9
 2002/12/05,14:15,19.4,52,20.8,14
 2002/12/05,14:30,19.4,54,20,14.1
 2002/12/05,14:45,19.3,56,20.2,14.2
 2002/12/05,15:00,19.5,57,20.3,14.3
 2002/12/05,15:15,19.5,57,20.2,14.3
 2002/12/05,15:30,19.4,58,20.1,14.4
 2002/12/05,15:45,19.5,58,19.9,14.5
 2002/12/05,16:00,19.5,58,19.8,14.6
 2002/12/05,16:15,19.4,59,19.7,14.7
 2002/12/05,16:30,19.3,59,19.3,14.8
 2002/12/05,16:45,19.6,60,19.3,14.8
 2002/12/05,17:00,19.7,59,18.9,14.8
 2002/12/05,17:15,19.6,60,18.7,14.8
 2002/12/05,17:30,19.4,59,18.6,14.9
 2002/12/05,17:45,19.6,61,18.3,14.9
 2002/12/05,18:00,19.6,60,18.3,15
 2002/12/05,18:15,19.6,60,18.7,15.1
 2002/12/05,18:30,19.5,59,19.2,15.2
 2002/12/05,18:45,19.9,62,19.5,15.4
 2002/12/05,19:00,19.9,61,19.8,15.5
 2002/12/05,19:15,19.7,60,20.9,15.6
 2002/12/05,19:30,19.7,61,20.4,15.7
 2002/12/05,19:45,19.8,60,19.8,15.8
 2002/12/05,20:00,19.8,61,19.4,15.9
 2002/12/05,20:15,19.7,60,19.2,16
 2002/12/05,20:30,19.7,60,19,16.1
 2002/12/05,20:45,19.6,59,18.9,16.2
 2002/12/05,21:00,19.4,58,18.6,16.3
 2002/12/05,21:15,19.3,57,18.5,16.3
 2002/12/05,21:30,21.2,55,18.4,16.4
 2002/12/05,21:45,21.5,54,18.5,15.5
 2002/12/05,22:00,21.7,53,18.3,15.6
 2002/12/05,22:15,21.7,52,18.8,15.6
 2002/12/05,22:30,20.5,54,18.7,14.9
 2002/12/05,22:45,20,56,17.9,14.9
 2002/12/05,23:00,19.7,56,17.6,14.9
 2002/12/05,23:15,19.4,56,17.4,15
 2002/12/05,23:30,19.2,56,17.3,15
 2002/12/05,23:45,18.9,56,17.2,15.1
 2002/12/06, 0:00,18.8,56,17,15.2
 2002/12/06, 0:15,18.5,56,16.9,15.3
 2002/12/06, 0:30,18.4,56,16.9,15.3
 2002/12/06, 0:45,18.2,56,16.7,15.4
 2002/12/06, 1:00,18,56,16.6,15.5
 2002/12/06, 1:15,17.9,56,16.5,15.5
 2002/12/06, 1:30,17.8,56,16.4,15.6
 2002/12/06, 1:45,17.6,56,16.2,15.6
 2002/12/06, 2:00,17.5,55,16.1,15.7
 2002/12/06, 2:15,17.3,56,15.9,15.8
 2002/12/06, 2:30,17.2,55,15.9,15.8
 2002/12/06, 2:45,17.1,55,15.8,15.8
 2002/12/06, 3:00,17,56,15.7,15.9
 2002/12/06, 3:15,16.9,56,15.5,15.9
 2002/12/06, 3:30,16.7,55,15.4,16
 2002/12/06, 3:45,16.6,55,15.2,16
 2002/12/06, 4:00,16.5,56,15.2,16.1
 2002/12/06, 4:15,16.5,56,15.1,16.1
 2002/12/06, 4:30,16.4,55,15.1,16.1
 2002/12/06, 4:45,16.2,55,14.9,16.1
 2002/12/06, 5:00,16.1,55,14.8,16.2
 2002/12/06, 5:15,16.1,55,14.8,16.2
 2002/12/06, 5:30,16,55,14.6,16.2
 2002/12/06, 5:45,15.9,55,14.6,16.2
 2002/12/06, 6:00,15.8,55,14.5,16.2
 2002/12/06, 6:15,15.9,55,14.5,16.3
 2002/12/06, 6:30,16,55,14.5,14.3
 2002/12/06, 6:45,20.6,48,14.8,14.4
 2002/12/06, 7:00,18.7,52,14.9,14.4
 2002/12/06, 7:15,19.9,50,14.8,14.4
 2002/12/06, 7:30,20.5,48,14.7,14.5
 2002/12/06, 7:45,20.2,48,14.7,14.5
 2002/12/06, 8:00,22.7,45,14.9,14.6
 2002/12/06, 8:15,23.1,42,14.9,14.6
 2002/12/06, 8:30,23.9,40,14.9,14.7
 2002/12/06, 8:45,24.1,39,15.5,14.7
 2002/12/06, 9:00,21.6,43,15.5,14.8
 2002/12/06, 9:15,21.9,44,15.4,14.8
 2002/12/06, 9:30,19.8,43,15.6,14.9
 2002/12/06, 9:45,18.8,43,15.3,14
 2002/12/06,10:00,18.9,46,15.4,14.1
 2002/12/06,10:15,18.6,43,15.6,14.1
 2002/12/06,10:30,17.6,41,15.6,14.2
 2002/12/06,10:45,17.1,41,15.5,14.2
 2002/12/06,11:00,17.3,43,15.7,14.3
 2002/12/06,11:15,16.8,42,15.7,14.3
 2002/12/06,11:30,16.6,42,15.8,14.4
 2002/12/06,11:45,16.7,43,15.9,14.4
 2002/12/06,12:00,16.4,43,16.1,14.5
 2002/12/06,12:15,16.6,43,16.2,14.5
 2002/12/06,12:30,16.9,44,16.5,13.7
 2002/12/06,12:45,17.1,47,17.1,13.7
 2002/12/06,13:00,17.2,47,17.1,13.7
 2002/12/06,13:15,17.3,48,17.2,13.8
 2002/12/06,13:30,17.1,46,17.7,13.8
 2002/12/06,13:45,17.1,46,17.5,13.9
 2002/12/06,14:00,17.3,47,17.4,14
 2002/12/06,14:15,17.3,48,17.2,14
 2002/12/06,14:30,17,43,17.1,14.1
 2002/12/06,14:45,16.9,45,17,14.2
 2002/12/06,15:00,17,47,16.7,14.2
 2002/12/06,15:15,16.9,47,16.6,14.3
 2002/12/06,15:30,16.8,48,16.6,14.3
 2002/12/06,15:45,16.9,47,16.4,14.4
 2002/12/06,16:00,16.9,47,16.2,14.5
 2002/12/06,16:15,16.7,47,15.9,14.5
 2002/12/06,16:30,16.5,46,15.5,14.6
 2002/12/06,16:45,20,41,15.3,14.6
 2002/12/06,17:00,21.9,38,15.2,14.7
 2002/12/06,17:15,19.9,42,15.2,14.7
 2002/12/06,17:30,20.2,41,14.8,14.8
 2002/12/06,17:45,20,42,15.5,14.8
 2002/12/06,18:00,19.8,43,15.9,14.9
 2002/12/06,18:15,19.9,43,16.5,15
 2002/12/06,18:30,20,43,17,15
 2002/12/06,18:45,21.1,42,16.8,15.1
 2002/12/06,19:00,21.1,42,20.1,15.2
 2002/12/06,19:15,20.8,44,17.7,15.2
 2002/12/06,19:30,21.6,42,17.2,15.3
 2002/12/06,19:45,21.1,44,16.7,15.3
 2002/12/06,20:00,21.7,42,16.4,15.4
 2002/12/06,20:15,21.3,42,16.2,15.4
 2002/12/06,20:30,21.3,41,16,15.5
 2002/12/06,20:45,21.1,41,16.2,15.5
 2002/12/06,21:00,20.8,42,17.8,15.6
 2002/12/06,21:15,23.3,37,16.8,15.6
 2002/12/06,21:30,20.9,41,16.6,15.7
 2002/12/06,21:45,20.7,42,16.1,15.7
 2002/12/06,22:00,20.5,41,15.6,15.8
 2002/12/06,22:15,20.9,40,15.7,15.8
 2002/12/06,22:30,21,42,16,15.8
 2002/12/06,22:45,20.6,44,15.5,15.9
 2002/12/06,23:00,20.6,45,15.2,15.9
 2002/12/06,23:15,20.5,44,15.1,15.9
 2002/12/06,23:30,20.4,44,15,16
 2002/12/06,23:45,20.4,44,14.9,16
 2002/12/07, 0:00,20.2,44,14.8,16
 2002/12/07, 0:15,20.6,44,14.8,16
 2002/12/07, 0:30,19.2,46,15.2,16.1
 2002/12/07, 0:45,18.5,46,14.6,14.4
 2002/12/07, 1:00,17.9,46,14.5,14.4
 2002/12/07, 1:15,17.5,46,14.3,14.4
 2002/12/07, 1:30,17.3,45,14.1,14.5
 2002/12/07, 1:45,17,45,14,14.5
 2002/12/07, 2:00,16.7,45,13.8,14.5
 2002/12/07, 2:15,16.5,46,13.7,14.6
 2002/12/07, 2:30,16.2,46,13.6,14.6
 2002/12/07, 2:45,16,46,13.5,14.6
 2002/12/07, 3:00,15.8,46,13.4,14.7
 2002/12/07, 3:15,15.7,46,13.2,14.7
 2002/12/07, 3:30,15.5,47,13.2,14.7
 2002/12/07, 3:45,15.4,46,13,14.7
 2002/12/07, 4:00,15.2,47,12.9,14.8
 2002/12/07, 4:15,15.1,47,12.9,14.8
 2002/12/07, 4:30,15,47,12.8,14.8
 2002/12/07, 4:45,14.8,48,12.7,14.8
 2002/12/07, 5:00,14.7,48,12.6,14.8
 2002/12/07, 5:15,14.6,48,12.5,14.8
 2002/12/07, 5:30,14.5,48,12.3,14.8
 2002/12/07, 5:45,14.4,48,12.4,14.8
 2002/12/07, 6:00,14.3,48,12.3,14.8
 2002/12/07, 6:15,14.1,48,12.3,14.8
 2002/12/07, 6:30,14.1,48,12.2,14.8
 2002/12/07, 6:45,14,48,12.2,14.8
 2002/12/07, 7:00,13.9,48,12.1,14.8
 2002/12/07, 7:15,13.8,49,12.1,14.8
 2002/12/07, 7:30,13.7,49,12.1,14.8
 2002/12/07, 7:45,14.4,49,12,14.8
 2002/12/07, 8:00,17,47,13,14.7
 2002/12/07, 8:15,18.4,46,12.7,13
 2002/12/07, 8:30,17.7,47,12.8,13
 2002/12/07, 8:45,18.1,45,12.9,13.1
 2002/12/07, 9:00,17.8,46,13.1,13.1
 2002/12/07, 9:15,17.9,47,13.7,13.1
 2002/12/07, 9:30,16.5,48,13.2,12.6
 2002/12/07, 9:45,15.9,49,13.1,12.6
 2002/12/07,10:00,15.4,48,13,12.6
 2002/12/07,10:15,15.1,47,13,12.7
 2002/12/07,10:30,14.8,46,12.9,12.7
 2002/12/07,10:45,14.3,47,12.9,12.8
 2002/12/07,11:00,14.1,49,12.8,12.9
 2002/12/07,11:15,14,50,12.8,12.9
 2002/12/07,11:30,13.9,50,12.8,13
 2002/12/07,11:45,13.8,51,12.8,13
 2002/12/07,12:00,13.8,50,12.8,13.1
 2002/12/07,12:15,13.8,51,12.7,13.2
 2002/12/07,12:30,13.9,51,12.8,13.2
 2002/12/07,12:45,13.9,51,12.7,13.2
 2002/12/07,13:00,13.9,52,12.7,13.3
 2002/12/07,13:15,14,52,12.8,13.3
 2002/12/07,13:30,14,52,12.9,13.4
 2002/12/07,13:45,14.3,52,12.9,13.4
 2002/12/07,14:00,17.4,51,13.2,13.4
 2002/12/07,14:15,17.9,48,13.2,12.2
 2002/12/07,14:30,18,48,13.2,12.2
 2002/12/07,14:45,18.5,46,13.4,12.3
 2002/12/07,15:00,17.8,46,13.4,12.4
 2002/12/07,15:15,16.6,49,13.3,12.4
 2002/12/07,15:30,16.2,49,13.2,12.5
 2002/12/07,15:45,15.9,49,13.2,12.6
 2002/12/07,16:00,15.6,50,13.1,12.7
 2002/12/07,16:15,15.6,51,13.2,12.8
 2002/12/07,16:30,15.4,51,13,11.9
 2002/12/07,16:45,15.3,51,13,11.8
 2002/12/07,17:00,15.4,51,12.7,11.9
 2002/12/07,17:15,15.4,51,13.2,11.9
 2002/12/07,17:30,15.4,51,13.9,12
 2002/12/07,17:45,15.5,53,17.5,12.1
 2002/12/07,18:00,15.4,52,15.9,12.1
 2002/12/07,18:15,16.7,52,15.4,12.2
 2002/12/07,18:30,17.9,50,15.8,12.3
 2002/12/07,18:45,18.5,48,18.1,12.3
 2002/12/07,19:00,19,49,16.8,12.4
 2002/12/07,19:15,19.6,48,16.5,12.5
 2002/12/07,19:30,19.6,46,15.9,12.5
 2002/12/07,19:45,19.5,47,15.5,12.6
 2002/12/07,20:00,20.2,46,15.2,12.6